[[{"header":{"parameterUnit":"m.s-1","parameterCategory":1,"la1":30.2991,"la2":30.254,"lo1":-89.0895,"lo2":-89.0444,"dy":0.0017,"dx":0.0017,"nx":28,"ny":28,"refTime":"2024-10-19T03:00:00:Z","depth":0,"parameterNumber":2,"parameterNumberName":"U-component_of_WINDS"},"data":[0,0,0,0,0,0,0,0,0,0,0,0,0,0,0,0,0,0,0,0,0,0,0,0,0,0,0,0,0,0,0,0,0,0,0,0,0,0,0,0,0,0,0,0,0,0,0,0,0,0,0,0,0,0,0,0,0,0,-2.1926,-2.1927,0,-2.197,-2.197,-2.1971,-2.1863,-2.1859,-2.1856,-2.1852,-2.1902,-2.1906,-2.191,0,0,0,0,0,0,0,0,0,0,0,0,0,-2.1752,-2.1756,-2.1926,-2.1927,-2.1927,-2.197,-2.197,-2.1971,-2.1863,-2.1859,-2.1855,-2.1851,-2.19,-2.1905,-2.1911,0,0,0,0,0,0,0,0,0,0,0,0,0,-2.1815,-2.1757,-2.1926,-2.1878,-2.1875,-2.197,-2.197,-2.1971,-2.1864,-2.1859,-2.1854,-2.1849,-2.1898,-2.1905,-2.1911,-2.2056,0,0,-2.1932,-2.1935,0,0,0,0,0,0,0,0,-2.1812,-2.1822,-2.1885,-2.1882,-2.1878,-2.1905,-2.1927,-2.2,-2.1865,-2.1868,-2.1852,-2.1846,-2.1907,-2.1913,-2.1933,-2.2058,-2.206,-2.1933,-2.1937,-2.194,-2.1942,0,0,0,0,0,0,0,-2.1808,-2.1819,-2.1943,-2.1886,-2.1882,-2.1856,-2.1859,-2.194,-2.1916,-2.1868,-2.186,-2.1866,-2.1904,-2.1926,-2.1933,-2.2061,-2.1933,-2.1938,-2.1943,-2.1945,-2.2308,-2.2314,0,0,0,0,0,0,-2.1809,-2.1816,-2.1942,-2.1945,-2.1831,-2.1863,-2.1867,-2.1902,-2.1915,-2.1912,-2.1871,-2.1861,-2.1917,-2.1925,-2.1934,-2.2106,-2.194,-2.1946,-2.195,-2.2303,-2.231,-2.2316,0,0,0,0,0,0,-2.1805,-2.1821,-2.194,-2.1878,-2.1892,-2.1872,-2.1912,-2.1905,-2.1927,-2.1917,-2.1913,-2.1897,-2.1914,-2.1925,-2.2026,-2.2106,-2.1949,-2.1955,-2.2296,-2.2305,-2.2313,-2.245,0,0,0,0,0,0,-2.1801,-2.182,-2.1875,-2.188,-2.1895,-2.2032,-2.1917,-2.191,-2.1939,-2.1927,-2.1941,-2.1939,-2.191,-2.2017,-2.2033,-2.2113,-2.196,-2.2289,-2.23,-2.231,-2.2438,-2.2462,-2.2482,0,0,0,0,0,-2.1795,-2.1912,-2.1878,-2.1894,-2.1962,-2.2036,-2.2045,-2.2009,-2.1945,-2.2,-2.1994,-2.1938,-2.2094,-2.2028,-2.2046,-2.2128,-2.2284,-2.2297,-2.2309,-2.2428,-2.2457,-2.2481,0,0,0,0,0,0,-2.1918,-2.1912,-2.1874,-2.1996,-2.2018,-2.2018,-2.2086,-2.204,-2.2081,-2.2069,-2.2023,-2.2027,-2.2138,-2.2142,-2.207,-2.2269,-2.2178,-2.2195,-2.2263,-2.229,-2.2312,-2.231,-2.1966,0,0,0,0,0,-2.1959,-2.2019,-2.201,-2.2119,-2.2131,-2.2107,-2.2138,-2.2108,-2.2129,-2.2137,-2.2138,-2.2161,-2.2215,-2.2252,-2.2301,-2.2436,-2.2439,-2.2502,-2.2524,-2.2542,-2.2558,-2.2632,-2.266,-2.2357,-2.2357,-2.2357,0,0,-2.2046,-2.2049,-2.209,-2.2144,-2.2157,-2.2221,-2.2116,-2.2187,-2.2235,-2.2149,-2.2245,-2.2246,-2.2269,-2.2389,-2.2441,-2.2396,-2.2642,-2.2558,-2.2572,-2.2579,-2.2648,-2.2676,-2.2702,-2.2366,-2.2364,-2.2363,0,0,-2.2236,-2.2244,-2.2336,-2.2351,-2.2371,-2.2353,-2.2375,-2.2382,-2.238,-2.2475,-2.2412,-2.2467,-2.2561,-2.258,-2.2603,-2.2798,-2.275,-2.2815,-2.2932,-2.3004,-2.3028,-2.3049,-2.3122,-2.3148,-2.2831,-2.2831,-2.2831,0,-2.2342,-2.2435,-2.239,-2.2466,-2.2492,-2.2414,-2.2509,-2.2525,-2.2561,-2.2581,-2.2529,-2.2645,-2.2654,-2.2778,-2.2826,-2.2845,-2.2871,-2.2816,-2.3028,-2.3049,-2.3068,-2.3137,-2.3164,-2.2839,-2.2838,-2.2837,-2.2837,0,-2.2565,-2.263,-2.2702,-2.2737,-2.2771,-2.2856,-2.2825,-2.2864,-2.283,-2.2819,-2.2918,-2.2926,-2.2976,-2.3002,-2.2971,-2.3122,-2.3094,-2.3035,-2.2944,-2.3106,-2.317,-2.3195,-2.2851,-2.2848,-2.2845,-2.2843,0,0,-2.2838,-2.2846,-2.2873,-2.2889,-2.2904,-2.2954,-2.3035,-2.3082,-2.3119,-2.3144,-2.3213,-2.3293,-2.3239,-2.3264,-2.3233,-2.3296,-2.3454,-2.323,-2.323,-2.3275,-2.3624,-2.3671,-2.3703,-2.342,-2.3424,-2.3428,-2.3624,0,-2.3029,-2.3168,-2.3129,-2.3269,-2.3329,-2.3255,-2.3326,-2.3344,-2.3334,-2.3385,-2.3374,-2.3433,-2.3356,-2.3371,-2.3429,-2.3423,-2.3524,-2.3407,-2.3486,-2.349,-2.3487,-2.3735,-2.3785,-2.397,-2.3648,-2.3652,-2.3655,0,-2.3271,-2.3306,-2.3452,-2.3457,-2.3481,-2.3545,-2.3586,-2.3634,-2.3652,-2.3641,-2.3669,-2.3625,-2.3706,-2.361,-2.3723,-2.3644,-2.3673,-2.3674,-2.3681,-2.369,-2.3586,-2.3756,-2.4027,-2.4057,-2.3694,-2.3691,-2.3688,0,-2.3461,-2.3543,-2.3641,-2.3656,-2.3664,-2.3711,-2.3717,-2.373,-2.3761,-2.3796,-2.3816,-2.386,-2.3885,-2.3921,-2.3891,-2.3824,-2.4009,-2.3911,-2.4005,-2.4006,-2.4051,-2.405,-2.4336,-2.4063,-2.4063,-2.4062,-2.4062,0,-2.3681,-2.3774,-2.3727,-2.3788,-2.389,-2.3843,-2.3946,-2.3943,-2.3955,-2.4015,-2.3951,-2.4009,-2.3964,-2.4018,-2.3994,-2.4092,-2.4103,-2.4098,-2.4092,-2.4107,-2.4108,-2.4129,-2.4117,-2.407,-2.4068,-2.4066,-2.4065,0,-2.3912,-2.3884,-2.3986,-2.3984,-2.3985,-2.4061,-2.406,-2.4116,-2.4101,-2.4178,-2.4193,-2.417,-2.423,-2.4202,-2.4265,-2.4249,-2.4377,-2.4351,-2.4371,-2.4366,-2.4463,-2.4456,-2.4776,-2.4816,-2.4514,-2.4517,-2.4519,0,-2.4056,-2.4126,-2.413,-2.4165,-2.4175,-2.4232,-2.4262,-2.4219,-2.4253,-2.4279,-2.4333,-2.4387,-2.4429,-2.4529,-2.4519,-2.4567,-2.4545,-2.4653,-2.4552,-2.4565,-2.4551,-2.4549,-2.4557,-2.4675,-2.4679,-2.4682,-2.4684,0,-2.4317,-2.4299,-2.4345,-2.4387,-2.4425,-2.4455,-2.4481,-2.4513,-2.447,-2.4513,-2.4573,-2.4605,-2.4668,-2.4724,-2.4766,-2.4772,-2.4723,-2.4715,-2.474,-2.4758,-2.4769,-2.4768,-2.4431,-2.4709,-2.4707,-2.4705,-2.4703,-2.4702,-2.4512,-2.457,-2.4583,-2.4636,-2.465,-2.4675,-2.4729,-2.4719,-2.4768,-2.4816,-2.4786,-2.4858,-2.4874,-2.4924,-2.4937,-2.4993,-2.4951,-2.4986,-2.4996,-2.5006,-2.5021,-2.4755,-2.5,-2.4999,-2.4999,-2.4998,-2.4997,0,-2.4772,-2.4776,-2.4825,-2.4862,-2.4904,-2.4849,-2.4875,-2.4915,-2.4977,-2.4995,-2.5037,-2.5107,-2.516,-2.5152,-2.5201,-2.5248,-2.5226,-2.5262,-2.5261,-2.5264,-2.5055,-2.503,-2.5279,-2.5279,-2.5279,-2.5279,-2.5279,-2.5279,-2.4913,-2.501,-2.4994,-2.5097,-2.51,-2.5168,-2.5188,-2.5211,-2.5225,-2.5305,-2.5348,-2.5342,-2.5351,-2.5399,-2.5446,-2.5442,-2.5465,-2.5511,-2.55,-2.5306,-2.5278,-2.5252,-2.5229,-2.5515,-2.5516,-2.5705,-2.5706,-2.5708]},{"header":{"parameterUnit":"m.s-1","parameterCategory":1,"la1":30.2991,"la2":30.254,"lo1":-89.0895,"lo2":-89.0444,"dy":0.0017,"dx":0.0017,"nx":28,"ny":28,"refTime":"2024-10-19T03:00:00:Z","depth":0,"parameterNumber":3,"parameterNumberName":"V-component_of_WINDS"},"data":[0,0,0,0,0,0,0,0,0,0,0,0,0,0,0,0,0,0,0,0,0,0,0,0,0,0,0,0,0,0,0,0,0,0,0,0,0,0,0,0,0,0,0,0,0,0,0,0,0,0,0,0,0,0,0,0,0,0,-3.5022,-3.5023,0,-3.5066,-3.5067,-3.5067,-3.5008,-3.5006,-3.5004,-3.5002,-3.5043,-3.5046,-3.5049,0,0,0,0,0,0,0,0,0,0,0,0,0,-3.4882,-3.4885,-3.5022,-3.5023,-3.5023,-3.5066,-3.5067,-3.5067,-3.5008,-3.5006,-3.5003,-3.5001,-3.5042,-3.5045,-3.5049,0,0,0,0,0,0,0,0,0,0,0,0,0,-3.4936,-3.4886,-3.5022,-3.4999,-3.4997,-3.5066,-3.5067,-3.5067,-3.5009,-3.5006,-3.5002,-3.4999,-3.504,-3.5045,-3.5049,-3.5141,0,0,-3.5063,-3.5065,0,0,0,0,0,0,0,0,-3.4933,-3.4941,-3.5002,-3.5001,-3.4999,-3.5028,-3.5032,-3.5092,-3.501,-3.5004,-3.5002,-3.4998,-3.504,-3.5045,-3.506,-3.5143,-3.5145,-3.5064,-3.5067,-3.5069,-3.507,0,0,0,0,0,0,0,-3.4929,-3.4939,-3.5039,-3.5003,-3.5001,-3.4985,-3.4989,-3.5043,-3.5039,-3.5005,-3.5,-3.5007,-3.5039,-3.5055,-3.506,-3.5146,-3.5064,-3.5068,-3.5071,-3.5072,-3.5306,-3.5309,0,0,0,0,0,0,-3.4929,-3.4936,-3.5038,-3.5041,-3.4958,-3.499,-3.4995,-3.5022,-3.5039,-3.5038,-3.5009,-3.5004,-3.5049,-3.5055,-3.5061,-3.517,-3.5069,-3.5073,-3.5076,-3.5302,-3.5306,-3.531,0,0,0,0,0,0,-3.4926,-3.4939,-3.5036,-3.4987,-3.4999,-3.4996,-3.5027,-3.5025,-3.5041,-3.5042,-3.5041,-3.5027,-3.5047,-3.5055,-3.5122,-3.517,-3.5075,-3.5079,-3.5298,-3.5304,-3.5308,-3.5387,0,0,0,0,0,0,-3.4922,-3.4938,-3.4974,-3.4989,-3.5001,-3.5098,-3.503,-3.5028,-3.505,-3.5043,-3.5059,-3.5058,-3.5045,-3.5115,-3.5127,-3.5175,-3.5083,-3.5294,-3.5301,-3.5307,-3.538,-3.5394,-3.5406,0,0,0,0,0,-3.4918,-3.4994,-3.4976,-3.4989,-3.5047,-3.5101,-3.5108,-3.5092,-3.5054,-3.5089,-3.509,-3.5058,-3.5163,-3.5123,-3.5135,-3.5185,-3.5291,-3.5299,-3.5306,-3.5374,-3.5391,-3.5406,0,0,0,0,0,0,-3.4983,-3.4995,-3.4976,-3.5059,-3.508,-3.509,-3.5135,-3.5111,-3.5141,-3.5133,-3.5111,-3.5115,-3.5187,-3.5192,-3.5147,-3.5274,-3.522,-3.5231,-3.5268,-3.5284,-3.5297,-3.5294,-3.5087,0,0,0,0,0,-3.5008,-3.5052,-3.5059,-3.5132,-3.5143,-3.5138,-3.516,-3.5147,-3.5166,-3.5174,-3.5179,-3.5198,-3.5235,-3.526,-3.5294,-3.5381,-3.5383,-3.5421,-3.5434,-3.5445,-3.5454,-3.5499,-3.5516,-3.5336,-3.5335,-3.5335,0,0,-3.5058,-3.507,-3.5099,-3.5145,-3.516,-3.5204,-3.5145,-3.5195,-3.5228,-3.5181,-3.5245,-3.525,-3.5269,-3.5346,-3.538,-3.5353,-3.5505,-3.5455,-3.5463,-3.5467,-3.5509,-3.5526,-3.5541,-3.5341,-3.534,-3.5339,0,0,-3.5172,-3.5187,-3.5249,-3.5264,-3.5287,-3.5282,-3.5297,-3.5312,-3.5314,-3.5378,-3.5344,-3.5381,-3.5446,-3.5461,-3.5478,-3.5598,-3.5569,-3.561,-3.5678,-3.5722,-3.5736,-3.5749,-3.5791,-3.5807,-3.5619,-3.5619,-3.5619,0,-3.5232,-3.53,-3.5283,-3.5336,-3.5357,-3.5318,-3.538,-3.5395,-3.5427,-3.5442,-3.5411,-3.5492,-3.5502,-3.5582,-3.5611,-3.5626,-3.5641,-3.5608,-3.5736,-3.5748,-3.576,-3.58,-3.5816,-3.5624,-3.5623,-3.5623,-3.5622,0,-3.5371,-3.5418,-3.5465,-3.5499,-3.5525,-3.5582,-3.5573,-3.5601,-3.5585,-3.5583,-3.5648,-3.5659,-3.5695,-3.5713,-3.5697,-3.579,-3.5773,-3.574,-3.5685,-3.5782,-3.5819,-3.5834,-3.5631,-3.5629,-3.5627,-3.5626,0,0,-3.5527,-3.5552,-3.5569,-3.5584,-3.5606,-3.5641,-3.5696,-3.5732,-3.5756,-3.578,-3.5824,-3.588,-3.5849,-3.5868,-3.5853,-3.5892,-3.5986,-3.5854,-3.5854,-3.5878,-3.6088,-3.6113,-3.6131,-3.5968,-3.597,-3.5973,-3.6086,0,-3.5641,-3.5738,-3.5724,-3.5816,-3.5859,-3.5823,-3.587,-3.5888,-3.5888,-3.5923,-3.5922,-3.5962,-3.5919,-3.593,-3.5967,-3.5967,-3.6028,-3.5959,-3.6007,-3.6009,-3.6003,-3.615,-3.6176,-3.6283,-3.6101,-3.6103,-3.6105,0,-3.5787,-3.5818,-3.5914,-3.593,-3.5947,-3.599,-3.6022,-3.6057,-3.6076,-3.6073,-3.6094,-3.6072,-3.6125,-3.607,-3.6142,-3.6095,-3.6114,-3.6117,-3.6121,-3.6124,-3.6063,-3.6157,-3.6317,-3.6333,-3.6128,-3.6126,-3.6124,0,-3.5891,-3.5956,-3.6022,-3.6036,-3.6055,-3.6086,-3.6095,-3.6112,-3.6134,-3.6161,-3.6176,-3.6208,-3.6226,-3.6251,-3.6239,-3.62,-3.6313,-3.6257,-3.631,-3.6311,-3.6335,-3.6334,-3.65,-3.6349,-3.6349,-3.6348,-3.6348,0,-3.602,-3.608,-3.6069,-3.611,-3.6176,-3.6159,-3.6224,-3.6229,-3.6243,-3.6283,-3.6253,-3.6291,-3.6272,-3.6308,-3.6298,-3.6358,-3.6367,-3.6365,-3.6361,-3.6367,-3.6367,-3.6379,-3.6371,-3.6352,-3.6352,-3.6351,-3.635,0,-3.6146,-3.6142,-3.6211,-3.6225,-3.6229,-3.6277,-3.6288,-3.6325,-3.6323,-3.6373,-3.6384,-3.638,-3.642,-3.6411,-3.6454,-3.6448,-3.6524,-3.6511,-3.6518,-3.6515,-3.6569,-3.6564,-3.6747,-3.677,-3.6605,-3.6607,-3.6608,0,-3.6228,-3.6274,-3.6293,-3.6318,-3.633,-3.6371,-3.6394,-3.6379,-3.6404,-3.643,-3.6463,-3.6502,-3.6531,-3.6597,-3.6597,-3.6631,-3.6618,-3.668,-3.6623,-3.6627,-3.6618,-3.6615,-3.6619,-3.6691,-3.6693,-3.6695,-3.6696,0,-3.6374,-3.637,-3.6405,-3.644,-3.6469,-3.6496,-3.6519,-3.6541,-3.6527,-3.6557,-3.6599,-3.6622,-3.6667,-3.6705,-3.6736,-3.6743,-3.6717,-3.6714,-3.6728,-3.6735,-3.6736,-3.6735,-3.6548,-3.671,-3.6709,-3.6708,-3.6707,-3.6706,-3.6481,-3.6519,-3.6539,-3.6579,-3.6596,-3.6618,-3.6654,-3.6656,-3.6692,-3.6728,-3.6717,-3.6764,-3.6781,-3.682,-3.6831,-3.6867,-3.6843,-3.6864,-3.6869,-3.6874,-3.6881,-3.6731,-3.6873,-3.6872,-3.6872,-3.6871,-3.6871,0,-3.6624,-3.6635,-3.6673,-3.6707,-3.6738,-3.6713,-3.6737,-3.6765,-3.6808,-3.6826,-3.6857,-3.6904,-3.6941,-3.6944,-3.6978,-3.7006,-3.6995,-3.7015,-3.7012,-3.7015,-3.69,-3.6884,-3.7024,-3.7024,-3.7024,-3.7024,-3.7023,-3.7023,-3.6703,-3.6767,-3.6765,-3.6836,-3.6846,-3.6894,-3.691,-3.693,-3.6945,-3.7,-3.703,-3.7033,-3.7045,-3.708,-3.7111,-3.7111,-3.7125,-3.715,-3.7145,-3.7038,-3.7023,-3.7008,-3.6993,-3.7153,-3.7153,-3.7256,-3.7257,-3.7258]}]]